Location: Dammartin
(48.9032°N, 1.6195°E)
Time: 14:39:04
(UTC+00:00)

SL-16 R/B - Pass Details

Date: 03 February 2023
Orbit: 842 x 846 km, 71.0° (Epoch: 29 March)

Event Time Altitude Azimuth Distance (km) Brightness Sun altitude
Rises 18:30:19 0° 215° (SW) 3,388 6.0 -16.0°
Reaches altitude 10° 18:32:46 10° 218° (SW) 2,457 5.2 -16.4°
Maximum altitude 18:38:23 68° 301° (WNW) 911 2.5 -17.4°
Drops below altitude 10° 18:44:03 10° 25° (NNE) 2,475 4.4 -18.3°
Enters shadow 18:44:40 - 25° (NNE) 2,705 4.5 -18.4°
